{"data":{"norad_id":55453,"intl_designator":"2023-015E","name":"STARLINK-5684","alt_names":[],"object_type":"PAYLOAD","status":"ACTIVE","operator":null,"country":"US","launch_date":"2023-02-02","launch_site_code":"AFETR","launch_vehicle":null,"mission":null,"orbit_class":"UNKNOWN","rcs_meters":null,"size_class":null,"mass_kg":null,"dimensions":null,"purposes":["comms"],"wikipedia_slug":null,"has_3d_model":false,"image_url":null,"decayed_at":null,"tle_current":{"epoch":"2026-05-24T17:32:31.593408Z","epoch_age_seconds":91692,"freshness":"FRESH","line1":"1 55453U 23015E   26144.73092122  .00000438  00000+0  25466-4 0  9997","line2":"2 55453  43.0029 259.1013 0001665 261.9054  98.1609 15.27576103182357","mean_motion":15.27576103,"eccentricity":0.0001665,"inclination_deg":43.0029,"raan_deg":259.1013,"arg_perigee_deg":261.9054,"mean_anomaly_deg":98.1609,"bstar":2.5466e-5,"rev_number":18235,"period_min":94.266989197592,"perigee_km":481.91837565651,"apogee_km":484.20315451229,"semimajor_km":6861.1977650844,"source":"CELESTRAK","updated_at":"2026-05-25T13:38:17.802788Z"}}}